Regional Weather Roundup
Issued by NWS Spokane, WA

Home | Current Version | Previous Version | Text Only | Print | Product List | Glossary On
Versions: 1 2 3 4 5 6 7 8 9 10 11 12 13 14 15 16 17 18 19 20 21 22 23 24 25 26 27 28 29 30 31 32 33 34 35 36 37 38 39 40 41 42 43 44 45 46 47 48 49 50
000
NZUS01 KOTX 241800
RWROTX
EASTERN WASHINGTON/NORTHERN IDAHO ROUNDUP
NATIONAL WEATHER SERVICE, SPOKANE WA
1100 AM PDT SUN MAY 24 2015

Note: "fair" indicated few or no clouds below 12,000 feet with no
significant weather and/or obstructions to visibility.

...NORTHEAST WASHINGTON AND NORTHERN IDAHO PANHANDLE...

CITY           SKY/WX    TMP DP  RH WIND       PRES   REMARKS
SPOKANE INTL   PTSUNNY   70  50  49 CALM      29.97F
SPOKANE DOWNTO MOSUNNY   73  50  44 CALM      29.96F
COEUR D ALENE  SUNNY     73  46  38 CALM      29.95F
DEER PARK      SUNNY     72  52  49 SE6       29.97F

...SOUTHEAST WASHINGTON AND SOUTHERN IDAHO PANHANDLE...

CITY           SKY/WX    TMP DP  RH WIND       PRES   REMARKS
WALLA WALLA    SUNNY     70  50  49 SW12      29.98F
PULLMAN/MOSCOW SUNNY     64  53  67 VRB5      30.01F
LOWELL           N/A     65  49  56 CALM      29.95F

...COLUMBIA BASIN...

CITY           SKY/WX    TMP DP  RH WIND       PRES   REMARKS
EPHRATA        MOSUNNY   74  51  44 CALM      29.93F
MOSES LAKE     MOSUNNY   72  50  45 S6        29.95F
TRI CITIES     SUNNY     72  51  47 VRB5      29.96F
HERMISTON      SUNNY     70  49  47 SW9       29.96F
PENDLETON      SUNNY     69  49  48 VRB6      29.98F

...EAST SLOPES CASCADES...

CITY           SKY/WX    TMP DP  RH WIND       PRES   REMARKS
THE DALLES     SUNNY     67  49  52 NW24G32   29.99F
YAKIMA         MOSUNNY   75  48  38 NW5       29.95F
ELLENSBURG     MOSUNNY   69  49  48 NW21      29.97F
WENATCHEE      MOSUNNY   73  46  38 NW10      29.94F
OMAK           PTSUNNY   77  46  33 N8        29.93F

...SOUTHERN BRITISH COLUMBIA...

CITY           SKY/WX    TMP DP  RH WIND       PRES   REMARKS

...WESTERN MONTANA...

CITY           SKY/WX    TMP DP  RH WIND       PRES   REMARKS
MISSOULA       MOSUNNY   69  36  29 SE20G25   30.01F

...NEIGHBORING CITIES...

CITY           SKY/WX    TMP DP  RH WIND       PRES   REMARKS
SEATTLE        CLOUDY    56  49  77 S8        30.14F



USA.gov is the U.S. government's official web portal to all federal, state and local government web resources and services.